Miscellaneous Local Product
Issued by NWS Hastings, NE

Home | Current Version | Previous Version | Text Only | Print | Product List | Glossary On
Versions: 1 2 3 4 5 6 7 8 9 10 11 12 13 14 15 16 17 18 19 20 21 22 23 24 25 26 27 28 29 30 31 32 33 34 35 36 37 38 39 40 41 42 43 44 45 46 47 48 49 50
000
AXUS43 KGID 280602
MISGRI

GID CWA HOURLY WEATHER ROUNDUP
NATIONAL WEATHER SERVICE HASTINGS NE
1200 AM CST WED JAN 28 2015

NOTE: "FAIR" INDICATES FEW OR NO CLOUDS BELOW 12,000 FEET WITH NO
SIGNIFICANT WEATHER AND/OR OBSTRUCTIONS TO VISIBILITY.

...SOUTH CENTRAL NEBRASKA...

CITY           SKY/WX    TMP DP  RH WIND       PRES   REMARKS
GRAND ISLAND   CLEAR     39  30  70 SE9       29.92S WCI  33
HASTINGS       CLEAR     40  30  67 SE7       29.90F
KEARNEY        PTCLDY    37  28  70 CALM      29.90F
ORD            CLEAR     31  27  85 CALM      29.89F
YORK           PTCLDY    37  30  75 SE10      29.93F WCI  30
AURORA         PTCLDY    34  29  82 SE8       29.92S WCI  27
LEXINGTON      CLEAR     33  28  81 NE3       29.90S
HOLDREGE       CLEAR     41  29  63 SE3       29.90S
HEBRON         PTCLDY    37  29  72 E5        29.92F WCI  34

...NEBRASKA PANHANDLE...

CITY           SKY/WX    TMP DP  RH WIND       PRES   REMARKS
CHADRON        CLEAR     36  28  73 SW8       29.90R WCI  30
ALLIANCE       CLEAR     29  25  85 CALM      29.94R
SCOTTSBLUFF      N/A    N/A N/A N/A MISG      29.96R
SIDNEY         PTCLDY    40  28  62 NW10      29.96S WCI  33

...WESTERN AND NORTH CENTRAL NEBRASKA...

CITY           SKY/WX    TMP DP  RH WIND       PRES   REMARKS
VALENTINE      PTCLDY    36  30  79 W8        29.85F WCI  30
AINSWORTH      MOCLDY    40  31  70 S6        29.85S
ONEILL         CLEAR     38  33  83 S9        29.88S WCI  31
BROKEN BOW     CLEAR     31  26  82 CALM      29.89F
IMPERIAL       PTCLDY    37  26  64 CALM      29.90F
NORTH PLATTE   PTCLDY    28  23  81 CALM      29.90S
MCCOOK         CLEAR     38  28  67 W3        29.89F

...EASTERN NEBRASKA...

CITY           SKY/WX    TMP DP  RH WIND       PRES   REMARKS
NORFOLK        CLEAR     39  31  72 SE10      29.91F WCI  32
SO SIOUX CITY  CLEAR     34  29  82 SE9       29.97S WCI  27
TEKAMAH        CLEAR     35  29  78 SE10      29.98F WCI  27
COLUMBUS       CLEAR     41  28  60 SE12      29.95S
ALBION         CLEAR     34  28  80 CALM      29.92S
OMAHA EPPLEY   CLEAR     39  30  70 SE15      29.99F WCI  31
OFFUTT AFB     CLEAR     37  30  76 E10       29.99S WCI  30
MILLARD        CLEAR     37  30  75 SE5       29.99S WCI  34
LINCOLN        CLEAR     39  29  67 SE9       29.97F WCI  33
NEBRASKA CITY  CLEAR     39  28  63 SE13      29.99F WCI  31
BEATRICE       CLEAR     41  31  66 SE7       29.95F
FALLS CITY     CLEAR     38  30  73 SE8       30.00F WCI  32

...NORTHERN KANSAS...

CITY           SKY/WX    TMP DP  RH WIND       PRES   REMARKS
GOODLAND       PTCLDY    47  29  49 SW10      29.92F
HILL CITY      CLEAR     38  25  59 SW3       29.91S
NORTON         CLEAR     36  25  64 SW6       29.89S WCI  31
PHILLIPSBURG   CLEAR     36  28  75 W5        29.90S WCI  32
SMITH CENTER   CLEAR     39  30  70 E9        29.90S WCI  33
BELOIT         CLEAR     43  34  70 SE6       29.90S
HAYS           CLEAR     50  28  43 SW6       29.93S
RUSSELL        FAIR      49  32  52 SW12      29.91S
CONCORDIA      CLEAR     43  34  70 SE6       29.91S
SALINA         FAIR      48  35  60 CALM      29.92S
TOPEKA         CLEAR     42  29  59 E8        30.01F



USA.gov is the U.S. government's official web portal to all federal, state and local government web resources and services.